Volver al catálogo

SL-8 R/B

ActivoPO
NORAD 17360·ROCKET BODY·🇷🇺 Russia

Lanzado Jan 29, 1987 desde Plesetsk Cosmodrome

Loading…

Próximos Pases (próximas 24 horas)

TLE

ActualizadoSource: Space-Track

Época: Sep 14, 2026, 12:11 UTC

1 17360U 87009B   26257.50806876 -.00000026  00000-0 -41761-4 0  9996
2 17360  82.9145 270.7581 0033684 108.5745  43.2246 13.77065073990594

Sigue SL-8 R/B en tiempo real con AllMySat

Download on the App Store